Time,TemperatureF,DewpointF,PressureIn,WindDirection,WindDirectionDegrees,WindSpeedMPH,WindSpeedGustMPH,Humidity,HourlyPrecipIn,Conditions,Clouds,dailyrainin,SoftwareType,DateUTC
2013-10-25 00:02:00,34.2,28.6,30.43,SE,135,0.0,0.0,80,0.00,,,0.00,meteohub,2013-10-25 05:02:00,
2013-10-25 00:07:00,34.2,28.6,30.44,SE,135,0.0,0.0,80,0.00,,,0.00,meteohub,2013-10-25 05:07:00,
2013-10-25 00:12:00,34.2,28.6,30.44,SE,135,0.0,0.0,80,0.00,,,0.00,meteohub,2013-10-25 05:12:00,
2013-10-25 00:17:00,34.0,28.8,30.44,SSE,158,0.0,0.0,81,0.00,,,0.00,meteohub,2013-10-25 05:17:00,
2013-10-25 00:22:00,34.0,28.8,30.44,SE,135,0.0,0.0,81,0.00,,,0.00,meteohub,2013-10-25 05:22:00,
2013-10-25 00:27:00,34.0,28.8,30.44,ESE,113,0.0,0.0,81,0.00,,,0.00,meteohub,2013-10-25 05:27:00,
2013-10-25 00:39:00,33.6,28.4,30.44,SE,135,0.0,0.0,81,0.00,,,0.00,meteohub,2013-10-25 05:39:00,
2013-10-25 00:44:00,33.4,28.2,30.44,ESE,113,0.0,0.0,81,0.00,,,0.00,meteohub,2013-10-25 05:44:00,
2013-10-25 00:49:00,33.6,28.8,30.44,South,180,0.0,0.0,82,0.00,,,0.00,meteohub,2013-10-25 05:49:00,
2013-10-25 00:54:00,33.4,28.6,30.44,SW,225,0.0,0.0,82,0.00,,,0.00,meteohub,2013-10-25 05:54:00,
2013-10-25 00:59:00,33.3,28.4,30.44,South,180,0.0,0.0,82,0.00,,,0.00,meteohub,2013-10-25 05:59:00,
2013-10-25 01:04:00,33.3,28.4,30.44,South,180,0.0,0.0,82,0.00,,,0.00,meteohub,2013-10-25 06:04:00,
2013-10-25 01:09:00,32.9,28.0,30.45,ESE,113,0.0,0.0,82,0.00,,,0.00,meteohub,2013-10-25 06:09:00,
2013-10-25 01:14:00,32.9,28.0,30.45,ESE,113,0.0,0.0,82,0.00,,,0.00,meteohub,2013-10-25 06:14:00,
2013-10-25 01:19:00,32.7,27.9,30.45,WSW,248,0.0,0.0,82,0.00,,,0.00,meteohub,2013-10-25 06:19:00,
2013-10-25 01:24:00,32.9,28.0,30.45,ESE,113,0.0,0.0,82,0.00,,,0.00,meteohub,2013-10-25 06:24:00,
2013-10-25 01:29:00,32.7,27.9,30.45,SE,135,0.0,0.0,82,0.00,,,0.00,meteohub,2013-10-25 06:29:00,
2013-10-25 01:34:00,32.7,27.9,30.45,ENE,68,0.0,0.0,82,0.00,,,0.00,meteohub,2013-10-25 06:34:00,
2013-10-25 01:39:00,32.7,27.9,30.45,East,90,0.0,0.0,82,0.00,,,0.00,meteohub,2013-10-25 06:39:00,
2013-10-25 01:44:00,32.5,28.0,30.44,SE,135,0.0,0.0,83,0.00,,,0.00,meteohub,2013-10-25 06:44:00,
2013-10-25 01:50:00,32.4,27.9,30.44,SSE,158,0.0,0.0,83,0.00,,,0.00,meteohub,2013-10-25 06:50:00,
2013-10-25 01:55:00,32.5,28.0,30.44,SSW,203,0.0,0.0,83,0.00,,,0.00,meteohub,2013-10-25 06:55:00,
2013-10-25 02:00:00,32.5,28.0,30.44,South,180,0.0,0.0,83,0.00,,,0.00,meteohub,2013-10-25 07:00:00,
2013-10-25 02:05:00,32.2,27.7,30.45,SE,135,0.0,0.0,83,0.00,,,0.00,meteohub,2013-10-25 07:05:00,
2013-10-25 02:10:00,32.0,27.5,30.45,SE,135,0.0,0.0,83,0.00,,,0.00,meteohub,2013-10-25 07:10:00,
2013-10-25 02:15:00,31.8,27.3,30.45,SE,135,0.0,0.0,83,0.00,,,0.00,meteohub,2013-10-25 07:15:00,
2013-10-25 02:20:00,31.8,27.3,30.45,SE,135,0.0,0.0,83,0.00,,,0.00,meteohub,2013-10-25 07:20:00,
2013-10-25 02:25:00,31.8,27.3,30.45,SE,135,0.0,0.0,83,0.00,,,0.00,meteohub,2013-10-25 07:25:00,
2013-10-25 02:30:00,31.8,27.3,30.45,ESE,113,0.0,0.0,83,0.00,,,0.00,meteohub,2013-10-25 07:30:00,
2013-10-25 02:35:00,31.8,27.5,30.45,SE,135,0.0,0.0,84,0.00,,,0.00,meteohub,2013-10-25 07:35:00,
2013-10-25 02:40:00,31.8,27.5,30.45,SW,225,0.0,0.0,84,0.00,,,0.00,meteohub,2013-10-25 07:40:00,
2013-10-25 02:45:00,31.8,27.5,30.46,South,180,0.0,0.0,84,0.00,,,0.00,meteohub,2013-10-25 07:45:00,
2013-10-25 02:50:00,31.5,27.1,30.46,South,180,0.0,0.0,84,0.00,,,0.00,meteohub,2013-10-25 07:50:00,
2013-10-25 02:55:00,31.5,27.1,30.46,SE,135,0.0,0.0,84,0.00,,,0.00,meteohub,2013-10-25 07:55:00,
2013-10-25 03:00:00,31.5,27.1,30.46,SE,135,0.0,0.0,84,0.00,,,0.00,meteohub,2013-10-25 08:00:00,
2013-10-25 03:05:00,31.3,27.0,30.46,South,180,0.0,0.0,84,0.00,,,0.00,meteohub,2013-10-25 08:05:00,
2013-10-25 03:10:00,31.5,27.1,30.46,SSE,158,0.0,0.0,84,0.00,,,0.00,meteohub,2013-10-25 08:10:00,
2013-10-25 03:15:00,31.5,27.1,30.46,South,180,0.0,0.0,84,0.00,,,0.00,meteohub,2013-10-25 08:15:00,
2013-10-25 03:20:00,31.1,26.8,30.46,SE,135,0.0,0.0,84,0.00,,,0.00,meteohub,2013-10-25 08:20:00,
2013-10-25 03:25:00,31.1,26.8,30.46,SE,135,0.0,0.0,84,0.00,,,0.00,meteohub,2013-10-25 08:25:00,
2013-10-25 03:30:00,31.1,26.8,30.46,SE,135,0.0,0.0,84,0.00,,,0.00,meteohub,2013-10-25 08:30:00,
2013-10-25 03:35:00,30.9,26.6,30.46,SSE,158,0.0,0.0,84,0.00,,,0.00,meteohub,2013-10-25 08:35:00,
2013-10-25 03:40:00,30.9,26.6,30.46,SSE,158,0.0,0.0,84,0.00,,,0.00,meteohub,2013-10-25 08:40:00,
2013-10-25 03:45:00,30.7,26.4,30.46,ESE,113,0.0,0.0,84,0.00,,,0.00,meteohub,2013-10-25 08:45:00,
2013-10-25 03:50:00,30.7,26.4,30.46,ESE,113,0.0,0.0,84,0.00,,,0.00,meteohub,2013-10-25 08:50:00,
2013-10-25 03:55:00,30.7,26.4,30.46,South,180,0.0,0.0,84,0.00,,,0.00,meteohub,2013-10-25 08:55:00,
2013-10-25 04:00:00,30.7,26.4,30.46,South,180,0.0,0.0,84,0.00,,,0.00,meteohub,2013-10-25 09:00:00,
2013-10-25 04:05:00,30.7,26.4,30.47,SSE,158,0.0,0.0,84,0.00,,,0.00,meteohub,2013-10-25 09:05:00,
2013-10-25 04:10:00,30.4,26.4,30.47,SSE,158,0.0,0.0,85,0.00,,,0.00,meteohub,2013-10-25 09:10:00,
2013-10-25 04:15:00,30.4,26.4,30.47,SSE,158,0.0,0.0,85,0.00,,,0.00,meteohub,2013-10-25 09:15:00,
2013-10-25 04:20:00,30.4,26.4,30.47,SSE,158,0.0,0.0,85,0.00,,,0.00,meteohub,2013-10-25 09:20:00,
2013-10-25 04:25:00,30.4,26.4,30.47,SSE,158,0.0,0.0,85,0.00,,,0.00,meteohub,2013-10-25 09:25:00,
2013-10-25 04:30:00,30.4,26.4,30.47,SSE,158,0.0,0.0,85,0.00,,,0.00,meteohub,2013-10-25 09:30:00,
2013-10-25 04:35:00,30.4,26.4,30.47,SSE,158,0.0,0.0,85,0.00,,,0.00,meteohub,2013-10-25 09:35:00,
2013-10-25 04:40:00,30.4,26.4,30.47,SE,135,0.0,0.0,85,0.00,,,0.00,meteohub,2013-10-25 09:40:00,
2013-10-25 04:45:00,30.4,26.4,30.47,ESE,113,0.0,0.0,85,0.00,,,0.00,meteohub,2013-10-25 09:45:00,
2013-10-25 04:50:00,30.0,26.1,30.47,ESE,113,0.0,0.0,85,0.00,,,0.00,meteohub,2013-10-25 09:50:00,
2013-10-25 04:55:00,30.0,26.1,30.47,ESE,113,0.0,0.0,85,0.00,,,0.00,meteohub,2013-10-25 09:55:00,
2013-10-25 05:00:00,30.0,26.1,30.47,ESE,113,0.0,0.0,85,0.00,,,0.00,meteohub,2013-10-25 10:00:00,
2013-10-25 05:05:00,30.0,26.1,30.48,ESE,113,0.0,0.0,85,0.00,,,0.00,meteohub,2013-10-25 10:05:00,
2013-10-25 05:10:00,30.0,26.1,30.48,ESE,113,0.0,0.0,85,0.00,,,0.00,meteohub,2013-10-25 10:10:00,
2013-10-25 05:15:00,29.8,25.9,30.48,ESE,113,0.0,0.0,85,0.00,,,0.00,meteohub,2013-10-25 10:15:00,
2013-10-25 05:20:00,29.8,25.9,30.48,SE,135,0.0,0.0,85,0.00,,,0.00,meteohub,2013-10-25 10:20:00,
2013-10-25 05:25:00,29.8,25.9,30.49,SSW,203,0.0,0.0,85,0.00,,,0.00,meteohub,2013-10-25 10:25:00,
2013-10-25 05:30:00,30.0,26.1,30.49,SSE,158,0.0,0.0,85,0.00,,,0.00,meteohub,2013-10-25 10:30:00,
2013-10-25 05:35:00,29.7,25.7,30.49,South,180,0.0,0.0,85,0.00,,,0.00,meteohub,2013-10-25 10:35:00,
2013-10-25 05:40:00,29.7,25.7,30.49,SSW,203,0.0,0.0,85,0.00,,,0.00,meteohub,2013-10-25 10:40:00,
2013-10-25 05:45:00,29.5,25.5,30.49,East,90,0.0,0.0,85,0.00,,,0.00,meteohub,2013-10-25 10:45:00,
2013-10-25 05:50:00,29.7,26.1,30.49,ESE,113,0.0,0.0,86,0.00,,,0.00,meteohub,2013-10-25 10:50:00,
2013-10-25 05:55:00,29.7,26.1,30.49,SSE,158,0.0,0.0,86,0.00,,,0.00,meteohub,2013-10-25 10:55:00,
2013-10-25 06:00:00,29.3,25.7,30.49,ESE,113,0.0,0.0,86,0.00,,,0.00,meteohub,2013-10-25 11:00:00,
2013-10-25 06:05:00,29.3,25.7,30.49,SE,135,0.0,0.0,86,0.00,,,0.00,meteohub,2013-10-25 11:05:00,
2013-10-25 06:11:00,29.3,25.7,30.49,SE,135,0.0,0.0,86,0.00,,,0.00,meteohub,2013-10-25 11:11:00,
2013-10-25 06:15:00,29.3,25.7,30.49,SE,135,0.0,0.0,86,0.00,,,0.00,meteohub,2013-10-25 11:15:00,
2013-10-25 06:20:00,29.3,25.7,30.49,East,90,0.0,0.0,86,0.00,,,0.00,meteohub,2013-10-25 11:20:00,
2013-10-25 06:25:00,29.1,25.2,30.51,ESE,113,0.0,0.0,85,0.00,,,0.00,meteohub,2013-10-25 11:25:00,
2013-10-25 06:30:00,29.3,25.7,30.50,SSE,158,0.0,0.0,86,0.00,,,0.00,meteohub,2013-10-25 11:30:00,
2013-10-25 06:36:00,29.1,25.2,30.51,SE,135,0.0,0.0,85,0.00,,,0.00,meteohub,2013-10-25 11:36:00,
2013-10-25 06:40:00,28.9,25.0,30.51,South,180,0.0,0.0,85,0.00,,,0.00,meteohub,2013-10-25 11:40:00,
2013-10-25 06:46:00,28.9,25.3,30.51,South,180,0.0,0.0,86,0.00,,,0.00,meteohub,2013-10-25 11:46:00,
2013-10-25 06:51:00,28.9,25.3,30.51,South,180,0.0,0.0,86,0.00,,,0.00,meteohub,2013-10-25 11:51:00,
2013-10-25 06:56:00,28.9,25.3,30.51,South,180,0.0,0.0,86,0.00,,,0.00,meteohub,2013-10-25 11:56:00,
2013-10-25 07:01:00,28.9,25.3,30.51,South,180,0.0,0.0,86,0.00,,,0.00,meteohub,2013-10-25 12:01:00,
2013-10-25 07:06:00,28.9,25.3,30.50,South,180,0.0,0.0,86,0.00,,,0.00,meteohub,2013-10-25 12:06:00,
2013-10-25 07:11:00,28.9,25.3,30.50,South,180,0.0,0.0,86,0.00,,,0.00,meteohub,2013-10-25 12:11:00,
2013-10-25 07:16:00,28.9,25.3,30.50,South,180,0.0,0.0,86,0.00,,,0.00,meteohub,2013-10-25 12:16:00,
2013-10-25 07:21:00,28.8,25.2,30.50,South,180,0.0,0.0,86,0.00,,,0.00,meteohub,2013-10-25 12:21:00,
2013-10-25 07:26:00,28.9,25.3,30.50,South,180,0.0,0.0,86,0.00,,,0.00,meteohub,2013-10-25 12:26:00,
2013-10-25 07:31:00,28.9,25.3,30.50,South,180,0.0,0.0,86,0.00,,,0.00,meteohub,2013-10-25 12:31:00,
2013-10-25 07:36:00,28.9,25.3,30.50,ESE,113,0.0,0.0,86,0.00,,,0.00,meteohub,2013-10-25 12:36:00,
2013-10-25 07:41:00,28.9,25.3,30.50,ESE,113,0.0,0.0,86,0.00,,,0.00,meteohub,2013-10-25 12:41:00,
2013-10-25 07:46:00,28.8,25.2,30.51,ESE,113,0.0,0.0,86,0.00,,,0.00,meteohub,2013-10-25 12:46:00,
2013-10-25 07:51:00,28.9,25.3,30.51,ESE,113,0.0,0.0,86,0.00,,,0.00,meteohub,2013-10-25 12:51:00,
2013-10-25 07:56:00,28.9,25.3,30.51,East,90,0.0,0.0,86,0.00,,,0.00,meteohub,2013-10-25 12:56:00,
2013-10-25 08:01:00,28.9,25.3,30.51,East,90,0.0,0.0,86,0.00,,,0.00,meteohub,2013-10-25 13:01:00,
2013-10-25 08:06:00,28.8,25.2,30.50,SSE,158,0.0,0.0,86,0.00,,,0.00,meteohub,2013-10-25 13:06:00,
2013-10-25 08:11:00,28.9,25.3,30.50,SW,225,0.0,0.0,86,0.00,,,0.00,meteohub,2013-10-25 13:11:00,
2013-10-25 08:16:00,28.9,25.3,30.50,SSW,203,0.0,0.0,86,0.00,,,0.00,meteohub,2013-10-25 13:16:00,
2013-10-25 08:21:00,28.9,25.3,30.50,South,180,0.0,0.0,86,0.00,,,0.00,meteohub,2013-10-25 13:21:00,
2013-10-25 08:26:00,29.1,25.7,30.50,SSW,203,0.0,0.0,87,0.00,,,0.00,meteohub,2013-10-25 13:26:00,
2013-10-25 08:31:00,29.3,25.9,30.50,SW,225,0.0,0.0,87,0.00,,,0.00,meteohub,2013-10-25 13:31:00,
2013-10-25 08:36:00,29.5,26.1,30.50,SW,225,0.0,0.0,87,0.00,,,0.00,meteohub,2013-10-25 13:36:00,
2013-10-25 08:41:00,29.7,26.2,30.50,SW,225,0.0,0.0,87,0.00,,,0.00,meteohub,2013-10-25 13:41:00,
2013-10-25 08:46:00,29.8,26.4,30.51,SW,225,0.0,0.0,87,0.00,,,0.00,meteohub,2013-10-25 13:46:00,
2013-10-25 08:51:00,30.4,27.3,30.51,SW,225,0.0,0.0,88,0.00,,,0.00,meteohub,2013-10-25 13:51:00,
2013-10-25 08:56:00,31.1,28.0,30.51,SW,225,0.0,0.0,88,0.00,,,0.00,meteohub,2013-10-25 13:56:00,
2013-10-25 09:02:00,31.5,28.4,30.50,WNW,293,0.0,0.0,88,0.00,,,0.00,meteohub,2013-10-25 14:02:00,
2013-10-25 09:06:00,32.2,29.3,30.50,NW,315,0.0,0.0,89,0.00,,,0.00,meteohub,2013-10-25 14:06:00,
2013-10-25 09:12:00,32.7,29.8,30.50,NNW,338,0.0,0.0,89,0.00,,,0.00,meteohub,2013-10-25 14:12:00,
2013-10-25 09:17:00,32.9,30.0,30.50,SW,225,0.0,0.0,89,0.00,,,0.00,meteohub,2013-10-25 14:17:00,
2013-10-25 09:22:00,33.8,30.9,30.49,East,90,0.0,0.0,89,0.00,,,0.00,meteohub,2013-10-25 14:22:00,
2013-10-25 09:27:00,35.6,32.4,30.50,SE,135,0.0,0.0,88,0.00,,,0.00,meteohub,2013-10-25 14:27:00,
2013-10-25 09:32:00,36.1,32.7,30.49,SE,135,2.0,0.0,87,0.00,,,0.00,meteohub,2013-10-25 14:32:00,
2013-10-25 09:37:00,38.3,34.0,30.49,SSW,203,0.0,0.0,84,0.00,,,0.00,meteohub,2013-10-25 14:37:00,
2013-10-25 09:42:00,38.3,34.0,30.49,SSW,203,0.0,2.0,84,0.00,,,0.00,meteohub,2013-10-25 14:42:00,
2013-10-25 09:47:00,39.4,34.7,30.48,SE,135,0.0,0.0,83,0.00,,,0.00,meteohub,2013-10-25 14:47:00,
2013-10-25 09:52:00,39.9,34.3,30.48,SSW,203,0.0,0.0,80,0.00,,,0.00,meteohub,2013-10-25 14:52:00,
2013-10-25 09:57:00,40.8,33.4,30.48,ESE,113,4.0,0.0,75,0.00,,,0.00,meteohub,2013-10-25 14:57:00,
2013-10-25 10:02:00,41.4,32.7,30.48,ESE,113,3.0,4.0,71,0.00,,,0.00,meteohub,2013-10-25 15:02:00,
2013-10-25 10:07:00,42.1,33.8,30.47,SSE,158,0.0,4.0,72,0.00,,,0.00,meteohub,2013-10-25 15:07:00,
2013-10-25 10:12:00,42.8,34.0,30.46,ESE,113,0.0,4.0,71,0.00,,,0.00,meteohub,2013-10-25 15:12:00,
2013-10-25 10:17:00,43.2,33.3,30.46,ESE,113,2.0,3.0,68,0.00,,,0.00,meteohub,2013-10-25 15:17:00,
2013-10-25 10:22:00,43.5,33.6,30.46,ESE,113,0.0,4.0,68,0.00,,,0.00,meteohub,2013-10-25 15:22:00,
2013-10-25 10:27:00,44.1,34.2,30.47,ENE,68,0.0,4.0,68,0.00,,,0.00,meteohub,2013-10-25 15:27:00,
2013-10-25 10:32:00,44.2,34.0,30.47,ESE,113,5.0,5.0,67,0.00,,,0.00,meteohub,2013-10-25 15:32:00,
2013-10-25 10:37:00,44.8,33.8,30.47,ESE,113,0.0,5.0,65,0.00,,,0.00,meteohub,2013-10-25 15:37:00,
2013-10-25 10:42:00,45.0,33.4,30.47,NNW,338,2.0,5.0,64,0.00,,,0.00,meteohub,2013-10-25 15:42:00,
2013-10-25 10:47:00,45.1,32.9,30.51,ESE,113,5.0,5.0,62,0.00,,,0.00,meteohub,2013-10-25 15:47:00,
2013-10-25 10:52:00,45.5,32.4,30.50,ENE,68,2.0,2.0,60,0.00,,,0.00,meteohub,2013-10-25 15:52:00,
2013-10-25 10:57:00,45.7,33.1,30.50,ESE,113,4.0,5.0,61,0.00,,,0.00,meteohub,2013-10-25 15:57:00,
2013-10-25 11:02:00,45.9,33.3,30.50,WSW,248,0.0,5.0,61,0.00,,,0.00,meteohub,2013-10-25 16:02:00,
2013-10-25 11:07:00,46.2,31.5,30.50,ESE,113,4.0,4.0,56,0.00,,,0.00,meteohub,2013-10-25 16:07:00,
2013-10-25 11:12:00,46.4,32.0,30.50,ENE,68,3.0,4.0,57,0.00,,,0.00,meteohub,2013-10-25 16:12:00,
2013-10-25 11:17:00,46.4,31.1,30.50,ESE,113,2.0,4.0,55,0.00,,,0.00,meteohub,2013-10-25 16:17:00,
2013-10-25 11:22:00,46.6,31.6,30.50,ESE,113,4.0,5.0,56,0.00,,,0.00,meteohub,2013-10-25 16:22:00,
2013-10-25 11:27:00,46.8,31.8,30.49,SE,135,3.0,5.0,56,0.00,,,0.00,meteohub,2013-10-25 16:27:00,
2013-10-25 11:32:00,47.1,32.7,30.49,ESE,113,2.0,5.0,57,0.00,,,0.00,meteohub,2013-10-25 16:32:00,
2013-10-25 11:37:00,47.3,32.4,30.48,SE,135,5.0,5.0,56,0.00,,,0.00,meteohub,2013-10-25 16:37:00,
2013-10-25 11:42:00,47.7,31.8,30.48,SE,135,5.0,5.0,54,0.00,,,0.00,meteohub,2013-10-25 16:42:00,
2013-10-25 11:47:00,48.0,33.1,30.48,NE,45,1.0,5.0,56,0.00,,,0.00,meteohub,2013-10-25 16:47:00,
2013-10-25 11:52:00,48.0,32.5,30.48,SE,135,0.0,5.0,55,0.00,,,0.00,meteohub,2013-10-25 16:52:00,
2013-10-25 11:57:00,48.2,32.4,30.48,ESE,113,3.0,3.0,54,0.00,,,0.00,meteohub,2013-10-25 16:57:00,
2013-10-25 12:02:00,48.2,31.8,30.48,SE,135,0.0,3.0,53,0.00,,,0.00,meteohub,2013-10-25 17:02:00,
2013-10-25 12:07:00,48.4,32.0,30.48,East,90,0.0,3.0,53,0.00,,,0.00,meteohub,2013-10-25 17:07:00,
2013-10-25 12:12:00,48.6,31.8,30.48,ESE,113,4.0,4.0,52,0.00,,,0.00,meteohub,2013-10-25 17:12:00,
2013-10-25 12:17:00,48.6,32.2,30.48,ESE,113,0.0,4.0,53,0.00,,,0.00,meteohub,2013-10-25 17:17:00,
2013-10-25 12:22:00,48.9,31.6,30.46,SE,135,3.0,4.0,51,0.00,,,0.00,meteohub,2013-10-25 17:22:00,
2013-10-25 12:27:00,49.1,32.7,30.46,ESE,113,0.0,4.0,53,0.00,,,0.00,meteohub,2013-10-25 17:27:00,
2013-10-25 12:32:00,49.5,32.0,30.46,ESE,113,4.0,4.0,51,0.00,,,0.00,meteohub,2013-10-25 17:32:00,
2013-10-25 12:38:00,49.6,31.8,30.46,ESE,113,2.0,4.0,50,0.00,,,0.00,meteohub,2013-10-25 17:38:00,
2013-10-25 12:43:00,49.8,32.4,30.44,ESE,113,3.0,4.0,51,0.00,,,0.00,meteohub,2013-10-25 17:43:00,
2013-10-25 12:48:00,49.8,32.9,30.44,WNW,293,0.0,4.0,52,0.00,,,0.00,meteohub,2013-10-25 17:48:00,
2013-10-25 12:53:00,49.8,32.9,30.44,ESE,113,4.0,4.0,52,0.00,,,0.00,meteohub,2013-10-25 17:53:00,
2013-10-25 12:58:00,49.8,32.4,30.44,South,180,1.0,4.0,51,0.00,,,0.00,meteohub,2013-10-25 17:58:00,
2013-10-25 13:03:00,50.2,32.7,30.43,SE,135,0.0,4.0,51,0.00,,,0.00,meteohub,2013-10-25 18:03:00,
2013-10-25 13:08:00,50.0,31.6,30.43,ESE,113,3.0,4.0,49,0.00,,,0.00,meteohub,2013-10-25 18:08:00,
2013-10-25 13:13:00,50.2,31.8,30.43,ESE,113,2.0,4.0,49,0.00,,,0.00,meteohub,2013-10-25 18:13:00,
2013-10-25 13:18:00,50.5,32.5,30.43,SW,225,0.0,3.0,50,0.00,,,0.00,meteohub,2013-10-25 18:18:00,
2013-10-25 13:23:00,50.5,32.0,30.42,SE,135,3.0,4.0,49,0.00,,,0.00,meteohub,2013-10-25 18:23:00,
2013-10-25 13:28:00,50.7,32.2,30.42,ESE,113,2.0,4.0,49,0.00,,,0.00,meteohub,2013-10-25 18:28:00,
2013-10-25 13:33:00,50.7,32.2,30.42,SW,225,0.0,4.0,49,0.00,,,0.00,meteohub,2013-10-25 18:33:00,
2013-10-25 13:38:00,50.9,32.4,30.42,East,90,2.0,3.0,49,0.00,,,0.00,meteohub,2013-10-25 18:38:00,
2013-10-25 13:43:00,50.9,31.5,30.40,SE,135,2.0,3.0,47,0.00,,,0.00,meteohub,2013-10-25 18:43:00,
2013-10-25 13:48:00,51.1,31.6,30.40,ESE,113,2.0,3.0,47,0.00,,,0.00,meteohub,2013-10-25 18:48:00,
2013-10-25 13:53:00,51.4,32.9,30.40,SSW,203,0.0,3.0,49,0.00,,,0.00,meteohub,2013-10-25 18:53:00,
2013-10-25 13:58:00,51.6,32.5,30.40,SW,225,4.0,11.0,48,0.00,,,0.00,meteohub,2013-10-25 18:58:00,
2013-10-25 14:03:00,51.6,33.1,30.39,SW,225,0.0,11.0,49,0.00,,,0.00,meteohub,2013-10-25 19:03:00,
2013-10-25 14:08:00,51.6,31.5,30.39,SW,225,2.0,11.0,46,0.00,,,0.00,meteohub,2013-10-25 19:08:00,
2013-10-25 14:13:00,51.6,31.5,30.39,SE,135,3.0,5.0,46,0.00,,,0.00,meteohub,2013-10-25 19:13:00,
2013-10-25 14:18:00,51.6,30.9,30.39,SE,135,2.0,4.0,45,0.00,,,0.00,meteohub,2013-10-25 19:18:00,
2013-10-25 14:23:00,51.6,32.0,30.38,SE,135,0.0,5.0,47,0.00,,,0.00,meteohub,2013-10-25 19:23:00,
2013-10-25 14:28:00,52.0,33.4,30.38,SSE,158,0.0,5.0,49,0.00,,,0.00,meteohub,2013-10-25 19:28:00,
2013-10-25 14:33:00,52.3,33.3,30.38,South,180,7.0,7.0,48,0.00,,,0.00,meteohub,2013-10-25 19:33:00,
2013-10-25 14:38:00,52.5,32.4,30.38,East,90,3.0,0.0,46,0.00,,,0.00,meteohub,2013-10-25 19:38:00,
2013-10-25 14:43:00,52.3,32.2,30.38,SSW,203,0.0,7.0,46,0.00,,,0.00,meteohub,2013-10-25 19:43:00,
2013-10-25 14:48:00,52.9,33.3,30.37,SW,225,0.0,7.0,47,0.00,,,0.00,meteohub,2013-10-25 19:48:00,
2013-10-25 14:53:00,53.1,33.4,30.37,SE,135,0.0,3.0,47,0.00,,,0.00,meteohub,2013-10-25 19:53:00,
2013-10-25 14:58:00,53.1,32.9,30.37,SE,135,2.0,0.0,46,0.00,,,0.00,meteohub,2013-10-25 19:58:00,
2013-10-25 15:03:00,53.1,32.4,30.37,SE,135,1.0,2.0,45,0.00,,,0.00,meteohub,2013-10-25 20:03:00,
2013-10-25 15:08:00,53.1,32.4,30.37,SE,135,0.0,2.0,45,0.00,,,0.00,meteohub,2013-10-25 20:08:00,
2013-10-25 15:13:00,53.4,32.5,30.37,ESE,113,3.0,3.0,45,0.00,,,0.00,meteohub,2013-10-25 20:13:00,
2013-10-25 15:18:00,53.2,31.8,30.37,ENE,68,0.0,3.0,44,0.00,,,0.00,meteohub,2013-10-25 20:18:00,
2013-10-25 15:23:00,53.4,32.0,30.36,ENE,68,1.0,3.0,44,0.00,,,0.00,meteohub,2013-10-25 20:23:00,
2013-10-25 15:28:00,53.2,30.7,30.36,SE,135,3.0,3.0,42,0.00,,,0.00,meteohub,2013-10-25 20:28:00,
2013-10-25 15:33:00,53.4,30.9,30.36,SE,135,0.0,3.0,42,0.00,,,0.00,meteohub,2013-10-25 20:33:00,
2013-10-25 15:38:00,53.2,31.3,30.36,SE,135,0.0,3.0,43,0.00,,,0.00,meteohub,2013-10-25 20:38:00,
2013-10-25 15:43:00,53.4,31.5,30.35,SE,135,2.0,3.0,43,0.00,,,0.00,meteohub,2013-10-25 20:43:00,
2013-10-25 15:48:00,53.6,31.6,30.35,SSE,158,0.0,2.0,43,0.00,,,0.00,meteohub,2013-10-25 20:48:00,
2013-10-25 15:53:00,53.4,30.9,30.35,SE,135,4.0,4.0,42,0.00,,,0.00,meteohub,2013-10-25 20:53:00,
2013-10-25 15:58:00,53.6,31.6,30.35,SSW,203,0.0,4.0,43,0.00,,,0.00,meteohub,2013-10-25 20:58:00,
2013-10-25 16:03:00,53.8,32.4,30.34,South,180,0.0,4.0,44,0.00,,,0.00,meteohub,2013-10-25 21:03:00,
2013-10-25 16:08:00,54.1,32.7,30.34,South,180,0.0,4.0,44,0.00,,,0.00,meteohub,2013-10-25 21:08:00,
2013-10-25 16:13:00,54.1,32.7,30.34,ESE,113,0.0,2.0,44,0.00,,,0.00,meteohub,2013-10-25 21:13:00,
2013-10-25 16:18:00,54.1,32.7,30.34,South,180,0.0,2.0,44,0.00,,,0.00,meteohub,2013-10-25 21:18:00,
2013-10-25 16:23:00,54.1,33.3,30.33,ESE,113,0.0,2.0,45,0.00,,,0.00,meteohub,2013-10-25 21:23:00,
2013-10-25 16:29:00,54.0,32.5,30.33,SE,135,3.0,0.0,44,0.00,,,0.00,meteohub,2013-10-25 21:29:00,
2013-10-25 16:34:00,54.1,32.7,30.33,ESE,113,0.0,3.0,44,0.00,,,0.00,meteohub,2013-10-25 21:34:00,
2013-10-25 16:39:00,53.8,32.4,30.33,ESE,113,3.0,3.0,44,0.00,,,0.00,meteohub,2013-10-25 21:39:00,
2013-10-25 16:44:00,53.6,32.2,30.33,SE,135,0.0,3.0,44,0.00,,,0.00,meteohub,2013-10-25 21:44:00,
2013-10-25 16:49:00,53.8,32.4,30.33,SE,135,0.0,3.0,44,0.00,,,0.00,meteohub,2013-10-25 21:49:00,
2013-10-25 16:54:00,53.8,32.4,30.33,SE,135,0.0,6.0,44,0.00,,,0.00,meteohub,2013-10-25 21:54:00,
2013-10-25 16:59:00,53.6,31.6,30.33,South,180,0.0,6.0,43,0.00,,,0.00,meteohub,2013-10-25 21:59:00,
2013-10-25 17:04:00,53.6,32.2,30.32,ESE,113,2.0,6.0,44,0.00,,,0.00,meteohub,2013-10-25 22:04:00,
2013-10-25 17:09:00,53.8,31.8,30.32,ESE,113,0.0,3.0,43,0.00,,,0.00,meteohub,2013-10-25 22:09:00,
2013-10-25 17:14:00,53.8,31.3,30.32,SW,225,0.0,3.0,42,0.00,,,0.00,meteohub,2013-10-25 22:14:00,
2013-10-25 17:19:00,53.8,31.3,30.32,SSW,203,0.0,2.0,42,0.00,,,0.00,meteohub,2013-10-25 22:19:00,
2013-10-25 17:24:00,53.8,31.8,30.32,SW,225,0.0,2.0,43,0.00,,,0.00,meteohub,2013-10-25 22:24:00,
2013-10-25 17:29:00,53.2,30.7,30.32,SE,135,0.0,2.0,42,0.00,,,0.00,meteohub,2013-10-25 22:29:00,
2013-10-25 17:34:00,53.1,30.6,30.32,SE,135,0.0,2.0,42,0.00,,,0.00,meteohub,2013-10-25 22:34:00,
2013-10-25 17:39:00,53.1,30.6,30.32,SE,135,0.0,0.0,42,0.00,,,0.00,meteohub,2013-10-25 22:39:00,
2013-10-25 17:44:00,52.9,30.9,30.32,ESE,113,1.0,2.0,43,0.00,,,0.00,meteohub,2013-10-25 22:44:00,
2013-10-25 17:49:00,52.7,31.5,30.32,SE,135,0.0,2.0,44,0.00,,,0.00,meteohub,2013-10-25 22:49:00,
2013-10-25 17:54:00,52.3,31.1,30.32,SW,225,0.0,2.0,44,0.00,,,0.00,meteohub,2013-10-25 22:54:00,
2013-10-25 17:59:00,52.2,30.9,30.32,SW,225,0.0,1.0,44,0.00,,,0.00,meteohub,2013-10-25 22:59:00,
2013-10-25 18:04:00,52.0,30.7,30.30,SSE,158,0.0,0.0,44,0.00,,,0.00,meteohub,2013-10-25 23:04:00,
2013-10-25 18:09:00,52.0,30.7,30.30,SSE,158,0.0,0.0,44,0.00,,,0.00,meteohub,2013-10-25 23:09:00,
2013-10-25 18:14:00,51.3,31.1,30.31,SE,135,0.0,0.0,46,0.00,,,0.00,meteohub,2013-10-25 23:14:00,
2013-10-25 18:19:00,50.9,31.5,30.31,ESE,113,0.0,0.0,47,0.00,,,0.00,meteohub,2013-10-25 23:19:00,
2013-10-25 18:24:00,50.7,31.8,30.33,WSW,248,0.0,0.0,48,0.00,,,0.00,meteohub,2013-10-25 23:24:00,
2013-10-25 18:29:00,50.4,31.5,30.33,ESE,113,0.0,0.0,48,0.00,,,0.00,meteohub,2013-10-25 23:29:00,
2013-10-25 18:34:00,50.2,31.3,30.33,SSE,158,0.0,0.0,48,0.00,,,0.00,meteohub,2013-10-25 23:34:00,
2013-10-25 18:39:00,49.8,31.5,30.33,ESE,113,0.0,0.0,49,0.00,,,0.00,meteohub,2013-10-25 23:39:00,
2013-10-25 18:44:00,49.6,31.3,30.30,ESE,113,0.0,0.0,49,0.00,,,0.00,meteohub,2013-10-25 23:44:00,
2013-10-25 18:49:00,49.3,31.5,30.31,SE,135,0.0,0.0,50,0.00,,,0.00,meteohub,2013-10-25 23:49:00,
2013-10-25 18:54:00,49.1,31.8,30.31,ENE,68,0.0,0.0,51,0.00,,,0.00,meteohub,2013-10-25 23:54:00,
2013-10-25 18:59:00,48.7,31.5,30.31,ESE,113,0.0,0.0,51,0.00,,,0.00,meteohub,2013-10-25 23:59:00,
2013-10-25 19:04:00,48.4,31.6,30.30,SE,135,0.0,0.0,52,0.00,,,0.00,meteohub,2013-10-26 00:04:00,
2013-10-25 19:09:00,48.0,31.6,30.30,ESE,113,0.0,0.0,53,0.00,,,0.00,meteohub,2013-10-26 00:09:00,
2013-10-25 19:14:00,47.7,31.8,30.30,ESE,113,0.0,0.0,54,0.00,,,0.00,meteohub,2013-10-26 00:14:00,
2013-10-25 19:19:00,47.3,32.0,30.30,ESE,113,0.0,0.0,55,0.00,,,0.00,meteohub,2013-10-26 00:19:00,
2013-10-25 19:24:00,46.9,32.0,30.31,East,90,0.0,0.0,56,0.00,,,0.00,meteohub,2013-10-26 00:24:00,
2013-10-25 19:29:00,46.8,31.8,30.31,ESE,113,0.0,0.0,56,0.00,,,0.00,meteohub,2013-10-26 00:29:00,
2013-10-25 19:34:00,46.4,32.0,30.31,East,90,0.0,0.0,57,0.00,,,0.00,meteohub,2013-10-26 00:34:00,
2013-10-25 19:40:00,46.4,32.0,30.31,ENE,68,0.0,0.0,57,0.00,,,0.00,meteohub,2013-10-26 00:40:00,
2013-10-25 19:45:00,46.2,31.8,30.31,ESE,113,0.0,0.0,57,0.00,,,0.00,meteohub,2013-10-26 00:45:00,
2013-10-25 19:50:00,46.2,31.8,30.31,ESE,113,0.0,0.0,57,0.00,,,0.00,meteohub,2013-10-26 00:50:00,
2013-10-25 19:55:00,45.9,31.5,30.31,ESE,113,0.0,0.0,57,0.00,,,0.00,meteohub,2013-10-26 00:55:00,
2013-10-25 20:00:00,45.9,31.5,30.31,SE,135,0.0,0.0,57,0.00,,,0.00,meteohub,2013-10-26 01:00:00,
2013-10-25 20:05:00,45.9,32.0,30.31,NE,45,0.0,0.0,58,0.00,,,0.00,meteohub,2013-10-26 01:05:00,
2013-10-25 20:10:00,45.5,31.6,30.31,SE,135,0.0,0.0,58,0.00,,,0.00,meteohub,2013-10-26 01:10:00,
2013-10-25 20:15:00,45.5,31.6,30.31,SW,225,0.0,0.0,58,0.00,,,0.00,meteohub,2013-10-26 01:15:00,
2013-10-25 20:20:00,45.1,31.6,30.31,East,90,0.0,0.0,59,0.00,,,0.00,meteohub,2013-10-26 01:20:00,
2013-10-25 20:25:00,45.0,31.5,30.31,SE,135,0.0,0.0,59,0.00,,,0.00,meteohub,2013-10-26 01:25:00,
2013-10-25 20:30:00,45.1,31.6,30.31,ESE,113,0.0,0.0,59,0.00,,,0.00,meteohub,2013-10-26 01:30:00,
2013-10-25 20:35:00,45.1,32.0,30.31,NNE,23,0.0,0.0,60,0.00,,,0.00,meteohub,2013-10-26 01:35:00,
2013-10-25 20:40:00,45.0,32.0,30.31,East,90,0.0,0.0,60,0.00,,,0.00,meteohub,2013-10-26 01:40:00,
2013-10-25 20:45:00,44.8,31.8,30.30,NE,45,0.0,0.0,60,0.00,,,0.00,meteohub,2013-10-26 01:45:00,
2013-10-25 20:50:00,44.8,31.8,30.30,ENE,68,0.0,0.0,60,0.00,,,0.00,meteohub,2013-10-26 01:50:00,
2013-10-25 20:55:00,44.6,31.6,30.30,NE,45,0.0,0.0,60,0.00,,,0.00,meteohub,2013-10-26 01:55:00,
2013-10-25 21:00:00,44.8,31.8,30.30,ESE,113,0.0,0.0,60,0.00,,,0.00,meteohub,2013-10-26 02:00:00,
2013-10-25 21:05:00,44.8,31.8,30.29,NE,45,0.0,0.0,60,0.00,,,0.00,meteohub,2013-10-26 02:05:00,
2013-10-25 21:10:00,44.8,31.8,30.29,ESE,113,1.0,2.0,60,0.00,,,0.00,meteohub,2013-10-26 02:10:00,
2013-10-25 21:15:00,44.8,31.8,30.29,WNW,293,0.0,2.0,60,0.00,,,0.00,meteohub,2013-10-26 02:15:00,
2013-10-25 21:20:00,44.8,31.8,30.29,North,0,0.0,2.0,60,0.00,,,0.00,meteohub,2013-10-26 02:20:00,
2013-10-25 21:25:00,44.8,31.8,30.27,NW,315,0.0,0.0,60,0.00,,,0.00,meteohub,2013-10-26 02:25:00,
2013-10-25 21:30:00,44.8,31.8,30.27,ESE,113,0.0,0.0,60,0.00,,,0.00,meteohub,2013-10-26 02:30:00,
2013-10-25 21:35:00,44.8,31.8,30.27,SW,225,0.0,0.0,60,0.00,,,0.00,meteohub,2013-10-26 02:35:00,
2013-10-25 21:40:00,44.8,31.8,30.27,NW,315,0.0,0.0,60,0.00,,,0.00,meteohub,2013-10-26 02:40:00,
2013-10-25 21:45:00,44.6,31.6,30.28,SSW,203,0.0,0.0,60,0.00,,,0.00,meteohub,2013-10-26 02:45:00,
2013-10-25 21:50:00,44.8,31.8,30.27,ESE,113,0.0,0.0,60,0.00,,,0.00,meteohub,2013-10-26 02:50:00,
2013-10-25 21:55:00,44.8,31.8,30.27,SSE,158,0.0,2.0,60,0.00,,,0.00,meteohub,2013-10-26 02:55:00,
2013-10-25 22:00:00,44.8,31.8,30.27,East,90,0.0,2.0,60,0.00,,,0.00,meteohub,2013-10-26 03:00:00,
2013-10-25 22:05:00,44.8,31.8,30.27,ESE,113,0.0,2.0,60,0.00,,,0.00,meteohub,2013-10-26 03:05:00,
2013-10-25 22:10:00,44.4,31.5,30.28,SSE,158,0.0,0.0,60,0.00,,,0.00,meteohub,2013-10-26 03:10:00,
2013-10-25 22:15:00,44.4,31.5,30.28,SE,135,0.0,0.0,60,0.00,,,0.00,meteohub,2013-10-26 03:15:00,
2013-10-25 22:20:00,44.2,31.6,30.28,WSW,248,0.0,0.0,61,0.00,,,0.00,meteohub,2013-10-26 03:20:00,
2013-10-25 22:26:00,44.2,31.6,30.26,NNW,338,0.0,0.0,61,0.00,,,0.00,meteohub,2013-10-26 03:26:00,
2013-10-25 22:31:00,44.1,31.5,30.26,East,90,0.0,0.0,61,0.00,,,0.00,meteohub,2013-10-26 03:31:00,
2013-10-25 22:36:00,44.1,31.5,30.26,ESE,113,0.0,0.0,61,0.00,,,0.00,meteohub,2013-10-26 03:36:00,
2013-10-25 22:41:00,43.9,31.6,30.26,ESE,113,0.0,0.0,62,0.00,,,0.00,meteohub,2013-10-26 03:41:00,
2013-10-25 22:46:00,43.9,31.6,30.23,ENE,68,0.0,0.0,62,0.00,,,0.00,meteohub,2013-10-26 03:46:00,
2013-10-25 22:51:00,43.7,31.5,30.23,SSE,158,0.0,0.0,62,0.00,,,0.00,meteohub,2013-10-26 03:51:00,
2013-10-25 22:56:00,43.7,31.5,30.23,SE,135,0.0,0.0,62,0.00,,,0.00,meteohub,2013-10-26 03:56:00,
2013-10-25 23:01:00,43.5,31.8,30.23,ESE,113,0.0,0.0,63,0.00,,,0.00,meteohub,2013-10-26 04:01:00,
2013-10-25 23:02:00,43.5,31.8,30.23,ESE,113,0.0,0.0,63,0.00,,,0.00,meteohub,2013-10-26 04:02:00,
2013-10-25 23:07:00,43.5,31.8,30.21,SE,135,0.0,0.0,63,0.00,,,0.00,meteohub,2013-10-26 04:07:00,
2013-10-25 23:12:00,43.5,31.8,30.21,SE,135,0.0,0.0,63,0.00,,,0.00,meteohub,2013-10-26 04:12:00,
2013-10-25 23:17:00,43.5,32.2,30.21,NE,45,0.0,0.0,64,0.00,,,0.00,meteohub,2013-10-26 04:17:00,
2013-10-25 23:22:00,43.3,32.0,30.20,ESE,113,0.0,0.0,64,0.00,,,0.00,meteohub,2013-10-26 04:22:00,
2013-10-25 23:27:00,43.2,31.5,30.20,South,180,0.0,0.0,63,0.00,,,0.00,meteohub,2013-10-26 04:27:00,
2013-10-25 23:32:00,43.3,32.0,30.20,South,180,0.0,0.0,64,0.00,,,0.00,meteohub,2013-10-26 04:32:00,
2013-10-25 23:37:00,43.2,31.8,30.20,SE,135,0.0,0.0,64,0.00,,,0.00,meteohub,2013-10-26 04:37:00,
2013-10-25 23:42:00,43.0,31.6,30.20,SW,225,0.0,0.0,64,0.00,,,0.00,meteohub,2013-10-26 04:42:00,
2013-10-25 23:47:00,43.0,32.0,30.20,North,0,0.0,0.0,65,0.00,,,0.00,meteohub,2013-10-26 04:47:00,
2013-10-25 23:52:00,42.8,31.8,30.20,SE,135,0.0,0.0,65,0.00,,,0.00,meteohub,2013-10-26 04:52:00,
2013-10-25 23:57:00,43.0,32.0,30.20,SSE,158,0.0,0.0,65,0.00,,,0.00,meteohub,2013-10-26 04:57:00,